TimePDT,TemperatureF,Dew PointF,Humidity,Sea Level PressureIn,VisibilityMPH,Wind Direction,Wind SpeedMPH,Gust SpeedMPH,PrecipitationIn,Events,Conditions,WindDirDegrees,DateUTC
12:15 AM,48.2,44.6,87,29.79,10.0,Calm,Calm,-,N/A,,Overcast,0,2013-05-29 07:15:00
12:35 AM,48.2,44.6,87,29.79,10.0,Calm,Calm,-,N/A,,Overcast,0,2013-05-29 07:35:00
12:55 AM,48.2,44.6,87,29.78,10.0,Calm,Calm,-,N/A,,Overcast,0,2013-05-29 07:55:00
1:15 AM,48.2,44.6,87,29.78,10.0,Calm,Calm,-,N/A,,Overcast,0,2013-05-29 08:15:00
1:35 AM,48.2,44.6,87,29.76,10.0,Calm,Calm,-,N/A,,Overcast,0,2013-05-29 08:35:00
1:55 AM,48.2,44.6,87,29.76,10.0,Calm,Calm,-,N/A,,Overcast,0,2013-05-29 08:55:00
2:15 AM,48.2,44.6,87,29.75,10.0,Calm,Calm,-,N/A,,Overcast,0,2013-05-29 09:15:00
2:35 AM,48.2,44.6,87,29.75,10.0,Calm,Calm,-,N/A,,Overcast,0,2013-05-29 09:35:00
2:55 AM,48.2,44.6,87,29.75,10.0,Calm,Calm,-,N/A,,Overcast,0,2013-05-29 09:55:00
3:15 AM,48.2,44.6,87,29.75,10.0,SW,6.9,-,0.01,,Overcast,220,2013-05-29 10:15:00
3:35 AM,48.2,44.6,87,29.74,8.0,Calm,Calm,-,0.05,,Overcast,0,2013-05-29 10:35:00
3:55 AM,48.2,46.4,93,29.75,10.0,Calm,Calm,-,0.07,,Overcast,0,2013-05-29 10:55:00
4:15 AM,46.4,46.4,100,29.75,9.0,Calm,Calm,-,0.03,,Overcast,0,2013-05-29 11:15:00
4:35 AM,48.2,46.4,93,29.74,10.0,WSW,3.5,-,0.07,,Overcast,250,2013-05-29 11:35:00
4:55 AM,48.2,44.6,87,29.73,10.0,Calm,Calm,-,0.08,,Overcast,0,2013-05-29 11:55:00
5:15 AM,46.4,44.6,93,29.73,10.0,Calm,Calm,-,0.01,,Overcast,0,2013-05-29 12:15:00
5:35 AM,46.4,44.6,93,29.74,10.0,Calm,Calm,-,0.04,,Overcast,0,2013-05-29 12:35:00
5:55 AM,48.2,44.6,87,29.74,10.0,Calm,Calm,-,0.05,,Overcast,0,2013-05-29 12:55:00
6:15 AM,48.2,44.6,87,29.73,10.0,Calm,Calm,-,0.01,,Overcast,0,2013-05-29 13:15:00
6:35 AM,48.2,44.6,87,29.72,10.0,WNW,3.5,-,0.01,,Overcast,300,2013-05-29 13:35:00
6:55 AM,48.2,44.6,87,29.73,10.0,WNW,3.5,-,0.01,,Mostly Cloudy,290,2013-05-29 13:55:00
7:15 AM,48.2,46.4,93,29.73,10.0,Calm,Calm,-,N/A,,Mostly Cloudy,0,2013-05-29 14:15:00
7:35 AM,48.2,44.6,87,29.74,10.0,Calm,Calm,-,N/A,,Overcast,0,2013-05-29 14:35:00
7:55 AM,50.0,44.6,82,29.74,10.0,Calm,Calm,-,N/A,,Overcast,0,2013-05-29 14:55:00
8:15 AM,51.8,44.6,76,29.74,10.0,Calm,Calm,-,N/A,,Overcast,0,2013-05-29 15:15:00
8:35 AM,51.8,46.4,82,29.74,10.0,Calm,Calm,-,N/A,,Overcast,0,2013-05-29 15:35:00
8:55 AM,51.8,46.4,82,29.73,10.0,Calm,Calm,-,N/A,,Overcast,0,2013-05-29 15:55:00
9:15 AM,53.6,46.4,77,29.75,10.0,Calm,Calm,-,N/A,,Overcast,0,2013-05-29 16:15:00
9:35 AM,55.4,46.4,72,29.76,10.0,WSW,3.5,-,N/A,,Overcast,240,2013-05-29 16:35:00
9:55 AM,53.6,46.4,77,29.77,10.0,SW,5.8,-,N/A,,Overcast,220,2013-05-29 16:55:00
10:15 AM,53.6,46.4,77,29.77,10.0,SW,6.9,-,N/A,,Overcast,230,2013-05-29 17:15:00
10:35 AM,51.8,48.2,88,29.77,10.0,SW,6.9,-,N/A,,Overcast,220,2013-05-29 17:35:00
10:55 AM,53.6,48.2,82,29.79,10.0,SSW,5.8,-,N/A,,Mostly Cloudy,200,2013-05-29 17:55:00
11:15 AM,55.4,46.4,72,29.79,10.0,South,8.1,-,N/A,,Overcast,190,2013-05-29 18:15:00
11:35 AM,55.4,48.2,77,29.80,10.0,South,10.4,-,N/A,,Overcast,180,2013-05-29 18:35:00
11:55 AM,53.6,46.4,77,29.81,10.0,South,6.9,-,N/A,,Mostly Cloudy,170,2013-05-29 18:55:00
12:15 PM,55.4,48.2,77,29.81,10.0,South,12.7,-,N/A,,Mostly Cloudy,190,2013-05-29 19:15:00
12:35 PM,55.4,48.2,77,29.81,10.0,South,6.9,-,N/A,,Mostly Cloudy,190,2013-05-29 19:35:00
12:55 PM,53.6,48.2,82,29.83,10.0,SSE,10.4,-,N/A,,Overcast,160,2013-05-29 19:55:00
1:15 PM,55.4,48.2,77,29.83,10.0,SSE,9.2,-,N/A,,Overcast,160,2013-05-29 20:15:00
1:35 PM,55.4,50.0,82,29.82,10.0,South,9.2,-,N/A,,Mostly Cloudy,180,2013-05-29 20:35:00
1:55 PM,59.0,48.2,67,29.82,10.0,South,13.8,20.7,N/A,,Mostly Cloudy,190,2013-05-29 20:55:00
2:15 PM,60.8,46.4,59,29.84,10.0,SSW,19.6,25.3,N/A,,Scattered Clouds,210,2013-05-29 21:15:00
2:35 PM,60.8,46.4,59,29.85,10.0,SSW,21.9,29.9,N/A,,Partly Cloudy,210,2013-05-29 21:35:00
2:55 PM,60.8,44.6,55,29.84,10.0,SW,21.9,28.8,N/A,,Scattered Clouds,220,2013-05-29 21:55:00
3:15 PM,57.2,46.4,67,29.86,10.0,SSW,21.9,32.2,N/A,,Mostly Cloudy,210,2013-05-29 22:15:00
3:35 PM,60.8,44.6,55,29.86,10.0,SSW,24.2,29.9,N/A,,Overcast,200,2013-05-29 22:35:00
3:55 PM,59.0,44.6,59,29.87,10.0,SW,25.3,-,N/A,,Scattered Clouds,220,2013-05-29 22:55:00
4:15 PM,60.8,44.6,55,29.88,10.0,SSW,23.0,29.9,N/A,,Clear,200,2013-05-29 23:15:00
4:35 PM,60.8,44.6,55,29.87,10.0,SW,21.9,28.8,N/A,,Partly Cloudy,220,2013-05-29 23:35:00
4:55 PM,60.8,44.6,55,29.89,10.0,SSW,20.7,27.6,N/A,,Scattered Clouds,210,2013-05-29 23:55:00
5:15 PM,57.2,44.6,63,29.90,10.0,SSW,21.9,27.6,N/A,,Partly Cloudy,210,2013-05-30 00:15:00
5:35 PM,57.2,42.8,59,29.91,10.0,SSW,19.6,24.2,N/A,,Scattered Clouds,200,2013-05-30 00:35:00
5:55 PM,59.0,42.8,55,29.91,10.0,SSW,18.4,28.8,N/A,,Scattered Clouds,210,2013-05-30 00:55:00
6:15 PM,57.2,42.8,59,29.91,10.0,SSW,17.3,23.0,N/A,,Partly Cloudy,210,2013-05-30 01:15:00
6:35 PM,57.2,44.6,63,29.91,10.0,SSW,19.6,23.0,N/A,,Partly Cloudy,210,2013-05-30 01:35:00
6:55 PM,55.4,44.6,67,29.91,10.0,SSW,15.0,20.7,N/A,,Clear,200,2013-05-30 01:55:00
7:15 PM,55.4,42.8,63,29.92,10.0,SSW,15.0,-,N/A,,Clear,210,2013-05-30 02:15:00
7:35 PM,53.6,44.6,72,29.94,10.0,SW,13.8,17.3,N/A,,Clear,220,2013-05-30 02:35:00
7:55 PM,53.6,42.8,67,29.94,10.0,SSW,11.5,-,N/A,,Clear,200,2013-05-30 02:55:00
8:15 PM,51.8,44.6,76,29.94,10.0,South,8.1,-,N/A,,Mostly Cloudy,190,2013-05-30 03:15:00
8:35 PM,51.8,44.6,76,29.95,10.0,SSW,11.5,18.4,N/A,,Overcast,210,2013-05-30 03:35:00
8:55 PM,51.8,44.6,76,29.95,10.0,SSW,12.7,-,N/A,,Overcast,200,2013-05-30 03:55:00
9:15 PM,51.8,44.6,76,29.96,10.0,SSW,11.5,-,N/A,,Overcast,200,2013-05-30 04:15:00
9:35 PM,51.8,44.6,76,29.97,10.0,South,11.5,-,N/A,,Overcast,190,2013-05-30 04:35:00
9:55 PM,50.0,44.6,82,29.98,10.0,South,9.2,-,N/A,,Mostly Cloudy,190,2013-05-30 04:55:00
10:15 PM,50.0,44.6,82,29.98,10.0,South,9.2,-,N/A,,Mostly Cloudy,190,2013-05-30 05:15:00
10:35 PM,48.2,44.6,87,29.99,10.0,South,9.2,-,N/A,,Overcast,190,2013-05-30 05:35:00
10:55 PM,50.0,44.6,82,29.98,10.0,SSW,9.2,-,N/A,,Overcast,200,2013-05-30 05:55:00
11:15 PM,48.2,44.6,87,29.98,10.0,SSW,10.4,17.3,N/A,,Overcast,200,2013-05-30 06:15:00
11:35 PM,48.2,44.6,87,29.99,10.0,SSW,9.2,-,N/A,,Overcast,200,2013-05-30 06:35:00
11:55 PM,48.2,44.6,87,30.00,10.0,SSW,10.4,16.1,N/A,,Overcast,200,2013-05-30 06:55:00